Weather History for 71215 - December, 2013

Change the Weather History Date:

Wednesday, December 18, 2013

  Actual Average Record
Temperature  
Mean Temperature 36 °F -  
Max Temperature 39 °F - - ()
Min Temperature 32 °F - - ()
Degree Days  
Heating Degree Days 30    
Moisture  
Dew Point 24 °F    
Average Humidity 64    
Maximum Humidity 85    
Minimum Humidity 28    
Precipitation  
Precipitation 0.12 in - - ()
Sea Level Pressure  
Sea Level Pressure 30.03 in    
Wind  
Wind Speed 5 mph ()    
Max Wind Speed 18 mph    
Max Gust Speed 33 mph    
T = Trace of Precipitation, MM = Missing Value Source: Averaged Metar Reports

Daily Weather History Graph

Daily Weather History Graph

Search for Another Location

Airport or City:

Trip Planner

Search our weather history database for the weather conditions in past years. The results will help you decide how hot, cold, wet, or windy it might be!

Date:

Astronomy

Dec. 18, 2013 Rise Set
Actual Time 7:47 AM PST 4:01 PM PST
Civil Twilight 7:10 AM PST 4:38 PM PST
Nautical Twilight 6:29 AM PST 5:19 PM PST
Astronomical Twilight 5:51 AM PST 5:58 PM PST
Moon 5:45 PM PST (12/18) 8:23 AM PST (12/18)
Length of Visible Light 9h 28m
Length of Day
8h 13m
Full, 98% of the Moon is Illuminated
Dec 18
Full
Dec 25
Last Quarter
Jan 1
New
Jan 7
First Quarter
Jan 15
Full

Hourly Weather History & Observations

Time (PST) Temp. Windchill Dew Point Humidity Pressure Visibility Wind Dir Wind Speed Gust Speed Precip Events Conditions
12:00 AM 34.7 °F - 28.0 °F 77% 30.00 in - South 2.3 mph - N/A   Unknown
1:00 AM 34.3 °F - 28.2 °F 78% 30.01 in - South 1.2 mph - N/A   Unknown
2:00 AM 34.3 °F - 28.0 °F 78% 30.01 in - SSE 2.3 mph - N/A   Unknown
3:00 AM 34.5 °F - 27.7 °F 76% 30.00 in - SE 2.3 mph - N/A   Unknown
4:00 AM 34 °F - 28 °F 71% 29.99 in - South 5.8 mph - -  
4:00 AM 34.2 °F 29.0 °F 28.0 °F 78% 29.99 in - South 5.8 mph - N/A   Unknown
5:00 AM 33.6 °F 28.4 °F 29.5 °F 85% 29.99 in - SSE 5.8 mph - N/A   Unknown
6:00 AM 33.8 °F 30.8 °F 29.5 °F 84% 29.99 in - SSE 3.5 mph - N/A   Unknown
7:00 AM 34.2 °F - 28.6 °F 80% 29.98 in - SSE 2.3 mph - N/A   Unknown
8:00 AM 34.0 °F - 28.8 °F 81% 29.97 in - South 1.2 mph - N/A   Unknown
9:00 AM 34.0 °F - 28.6 °F 81% 29.98 in - North 1.2 mph - N/A   Unknown
10:00 AM 35 °F - 29 °F 69% 30.00 in - NNW 2.3 mph - -  
10:00 AM 32.9 °F - 28.6 °F 84% 30.00 in - NNW 2.3 mph - N/A   Unknown
11:00 AM 35.4 °F - 30.9 °F 84% 29.99 in - WNW 2.3 mph - N/A   Unknown
12:00 PM 36.9 °F 31.4 °F 31.3 °F 80% 29.96 in - NW 6.9 mph - N/A   Unknown
1:00 PM 37.6 °F 29.6 °F 30.9 °F 77% 29.96 in - NNW 12.7 mph 24.2 mph N/A   Unknown
2:00 PM 39.2 °F 33.0 °F 25.9 °F 59% 29.97 in - NNW 9.2 mph 17.3 mph N/A   Unknown
3:00 PM 39.2 °F 32.0 °F 18.3 °F 43% 29.99 in - North 11.5 mph 20.7 mph N/A   Unknown
4:00 PM 39 °F - 18 °F 30% 30.02 in - North 10.4 mph - -  
4:00 PM 38.7 °F 31.8 °F 18.3 °F 44% 30.02 in - North 10.4 mph 17.3 mph N/A   Unknown
5:00 PM 37.4 °F 29.3 °F 18.5 °F 46% 30.04 in - NNW 12.7 mph 21.9 mph N/A   Unknown
6:00 PM 36.5 °F 26.3 °F 15.3 °F 42% 30.06 in - North 18.4 mph 33.4 mph N/A   Unknown
7:00 PM 35.6 °F 25.9 °F 14.5 °F 42% 30.10 in - North 16.1 mph 27.6 mph N/A   Unknown
8:00 PM 32.9 °F 23.2 °F 14.9 °F 48% 30.12 in - NNW 13.8 mph 24.2 mph N/A   Unknown
9:00 PM 33.8 °F 26.4 °F 13.6 °F 44% 30.16 in - NNW 9.2 mph - N/A   Unknown
10:00 PM 34 °F - 13 °F 28% 30.20 in - North 11.5 mph - -  
10:00 PM 34.0 °F 25.5 °F 14.9 °F 46% 30.20 in - North 11.5 mph 24.2 mph N/A   Unknown
11:00 PM 33.1 °F 24.9 °F 13.5 °F 44% 30.20 in - NNW 10.4 mph 18.4 mph N/A   Unknown